Location: Acequia del Cap
(41.7000°N, 0.6167°E)
Time: 00:40:21
(UTC+00:00)

Cosmos 1626 Rocket - Pass Details

Date: 07 August 2020
Orbit: 603 x 631 km, 82.5° (Epoch: 22 September)

Event Time Altitude Azimuth Distance (km) Brightness Sun altitude
Rises 03:09:16 0° 352° (N) 2,872 7.5 -17.9°
Reaches altitude 10° 03:11:30 10° 353° (N) 1,961 6.6 -17.6°
Maximum altitude 03:15:50 85° 81° (E) 612 3.5 -17.0°
Enters shadow 03:19:54 11° 171° (S) 1,848 5.7 -16.4°
